[[{"header":{"parameterUnit":"m.s-1","parameterCategory":1,"la1":30.2991,"la2":30.254,"lo1":-89.0895,"lo2":-89.0444,"dy":0.0017,"dx":0.0017,"nx":28,"ny":28,"refTime":"2025-09-07T21:00:00:Z","depth":0,"parameterNumber":2,"parameterNumberName":"U-component_of_WINDS"},"data":[0,0,0,0,0,0,0,0,0,0,0,0,0,0,0,0,0,0,0,0,0,0,0,0,0,0,0,0,0,0,0,0,0,0,0,0,0,0,0,0,0,0,0,0,0,0,0,0,0,0,0,0,0,0,0,0,0,0,-1.0854,-1.0854,0,-1.0811,-1.081,-1.081,-1.0786,-1.0786,-1.0786,-1.0786,-1.0739,-1.0738,-1.0737,0,0,0,0,0,0,0,0,0,0,0,0,0,-1.0915,-1.0914,-1.0854,-1.0854,-1.0853,-1.0811,-1.081,-1.081,-1.0786,-1.0786,-1.0786,-1.0786,-1.0739,-1.0738,-1.0737,0,0,0,0,0,0,0,0,0,0,0,0,0,-1.0882,-1.0914,-1.0855,-1.0837,-1.0835,-1.0811,-1.081,-1.0809,-1.0786,-1.0786,-1.0786,-1.0786,-1.074,-1.0738,-1.0736,-1.0726,0,0,-1.0731,-1.073,0,0,0,0,0,0,0,0,-1.0884,-1.0879,-1.084,-1.0838,-1.0835,-1.0804,-1.0814,-1.0782,-1.0786,-1.0805,-1.0786,-1.0786,-1.076,-1.0757,-1.0749,-1.0724,-1.0722,-1.0731,-1.0729,-1.0729,-1.0728,0,0,0,0,0,0,0,-1.0886,-1.0881,-1.0837,-1.0839,-1.0837,-1.083,-1.0825,-1.0808,-1.0783,-1.0803,-1.0801,-1.0796,-1.0759,-1.0751,-1.0748,-1.0721,-1.0731,-1.0729,-1.0728,-1.0727,-1.0686,-1.0686,0,0,0,0,0,0,-1.0891,-1.0883,-1.0838,-1.0836,-1.086,-1.0829,-1.0823,-1.0814,-1.0783,-1.0779,-1.0797,-1.0796,-1.0754,-1.075,-1.0746,-1.0732,-1.0729,-1.0727,-1.0726,-1.0686,-1.0686,-1.0686,0,0,0,0,0,0,-1.0893,-1.0888,-1.084,-1.0859,-1.0852,-1.0828,-1.0818,-1.0813,-1.0805,-1.0779,-1.0774,-1.0792,-1.0754,-1.0748,-1.0731,-1.073,-1.0726,-1.0725,-1.0686,-1.0686,-1.0686,-1.0705,0,0,0,0,0,0,-1.0895,-1.0888,-1.0885,-1.0859,-1.0852,-1.0827,-1.0817,-1.0812,-1.0802,-1.08,-1.0774,-1.0769,-1.0753,-1.0734,-1.073,-1.0728,-1.0723,-1.0686,-1.0686,-1.0686,-1.0704,-1.0705,-1.0707,0,0,0,0,0,-1.0897,-1.0891,-1.0885,-1.088,-1.0847,-1.0827,-1.0823,-1.0806,-1.0802,-1.0798,-1.0781,-1.077,-1.0731,-1.0733,-1.0727,-1.0725,-1.0686,-1.0686,-1.0686,-1.0704,-1.0705,-1.0707,0,0,0,0,0,0,-1.0917,-1.0888,-1.088,-1.0866,-1.085,-1.0824,-1.0818,-1.0808,-1.0791,-1.079,-1.0768,-1.0762,-1.0747,-1.0734,-1.0737,-1.0713,-1.0707,-1.0706,-1.0723,-1.0724,-1.0725,-1.0729,-1.0722,0,0,0,0,0,-1.092,-1.0907,-1.0882,-1.0872,-1.0864,-1.0843,-1.0834,-1.0822,-1.0803,-1.0796,-1.0778,-1.0759,-1.0743,-1.0733,-1.0716,-1.0702,-1.0696,-1.0697,-1.0699,-1.07,-1.0699,-1.069,-1.0691,-1.0686,-1.0686,-1.0686,0,0,-1.0926,-1.0908,-1.0901,-1.0876,-1.0862,-1.0848,-1.0837,-1.0823,-1.0813,-1.0793,-1.0777,-1.0763,-1.0741,-1.0725,-1.0717,-1.0714,-1.0699,-1.07,-1.0701,-1.0699,-1.069,-1.0691,-1.0691,-1.0686,-1.0686,-1.0686,0,0,-1.0929,-1.0915,-1.0905,-1.0891,-1.087,-1.0856,-1.0853,-1.0829,-1.0819,-1.0802,-1.0787,-1.0774,-1.0746,-1.0731,-1.072,-1.0718,-1.0706,-1.0713,-1.0719,-1.0711,-1.0711,-1.0711,-1.071,-1.071,-1.0712,-1.0712,-1.0712,0,-1.0939,-1.0919,-1.0901,-1.0889,-1.0878,-1.086,-1.085,-1.0837,-1.0811,-1.0803,-1.0799,-1.0764,-1.0748,-1.0729,-1.0729,-1.072,-1.0716,-1.0716,-1.0713,-1.0713,-1.0712,-1.0711,-1.0711,-1.0713,-1.0713,-1.0713,-1.0713,0,-1.0932,-1.0919,-1.0913,-1.089,-1.0878,-1.0866,-1.0846,-1.0836,-1.0825,-1.0811,-1.0793,-1.0773,-1.0753,-1.0747,-1.0736,-1.0726,-1.0724,-1.0717,-1.071,-1.0714,-1.0713,-1.0712,-1.0714,-1.0714,-1.0714,-1.0713,0,0,-1.0948,-1.0914,-1.0913,-1.0902,-1.0877,-1.0865,-1.0853,-1.0833,-1.0825,-1.0807,-1.0796,-1.0773,-1.0766,-1.0753,-1.074,-1.0733,-1.0732,-1.0726,-1.0725,-1.0728,-1.072,-1.0726,-1.0726,-1.0725,-1.0724,-1.0724,-1.0722,0,-1.0948,-1.0926,-1.0909,-1.0893,-1.088,-1.0862,-1.0851,-1.0834,-1.082,-1.0807,-1.0791,-1.0775,-1.0767,-1.0759,-1.0751,-1.0734,-1.073,-1.0734,-1.0713,-1.0713,-1.0719,-1.0725,-1.0731,-1.073,-1.0721,-1.0721,-1.0721,0,-1.0945,-1.093,-1.0912,-1.0889,-1.0882,-1.0873,-1.0853,-1.0841,-1.0821,-1.0811,-1.0797,-1.0783,-1.0768,-1.0763,-1.0742,-1.0745,-1.0735,-1.0725,-1.0725,-1.0722,-1.0717,-1.0723,-1.0729,-1.0729,-1.072,-1.072,-1.072,0,-1.0959,-1.0933,-1.0919,-1.091,-1.0882,-1.0876,-1.0863,-1.0844,-1.0833,-1.0815,-1.0808,-1.0789,-1.0778,-1.0763,-1.0744,-1.0742,-1.0725,-1.0718,-1.0716,-1.0717,-1.0713,-1.0714,-1.0718,-1.0707,-1.0707,-1.0707,-1.0707,0,-1.0961,-1.0951,-1.0925,-1.0916,-1.0904,-1.0885,-1.0873,-1.0859,-1.0842,-1.083,-1.0813,-1.0802,-1.0778,-1.0763,-1.0748,-1.0733,-1.0728,-1.0719,-1.0715,-1.0721,-1.0722,-1.0714,-1.0714,-1.0707,-1.0707,-1.0707,-1.0707,0,-1.0974,-1.0956,-1.094,-1.0915,-1.0908,-1.09,-1.0878,-1.0869,-1.0854,-1.0839,-1.0834,-1.0811,-1.0793,-1.0773,-1.0748,-1.0738,-1.0724,-1.0718,-1.0731,-1.0729,-1.0728,-1.0728,-1.0727,-1.0726,-1.0716,-1.0716,-1.0716,0,-1.0977,-1.0969,-1.0943,-1.0934,-1.0923,-1.0909,-1.0898,-1.0878,-1.0867,-1.0844,-1.0837,-1.0818,-1.0802,-1.0774,-1.0754,-1.0735,-1.0729,-1.073,-1.0726,-1.0731,-1.0729,-1.073,-1.0729,-1.0731,-1.0731,-1.0731,-1.0732,0,-1.0984,-1.0975,-1.0961,-1.0943,-1.093,-1.0915,-1.0899,-1.0892,-1.0869,-1.0858,-1.084,-1.0827,-1.0802,-1.0783,-1.0762,-1.0748,-1.0736,-1.0733,-1.0732,-1.0737,-1.0745,-1.0741,-1.0734,-1.0733,-1.0733,-1.0733,-1.0733,-1.0733,-1.0992,-1.0984,-1.0965,-1.0949,-1.0935,-1.092,-1.091,-1.0894,-1.0879,-1.0858,-1.0847,-1.0829,-1.0808,-1.0778,-1.0765,-1.075,-1.0746,-1.0744,-1.0743,-1.0743,-1.0745,-1.0747,-1.0746,-1.0746,-1.0746,-1.0746,-1.0746,0,-1.0998,-1.0985,-1.097,-1.0949,-1.0936,-1.0926,-1.0908,-1.0898,-1.0883,-1.0865,-1.085,-1.0829,-1.081,-1.0789,-1.0769,-1.0761,-1.0755,-1.0757,-1.0757,-1.0754,-1.0749,-1.0753,-1.0762,-1.0762,-1.0762,-1.0762,-1.0762,-1.0762,-1.1,-1.0986,-1.0975,-1.0954,-1.094,-1.0923,-1.0914,-1.09,-1.0886,-1.0863,-1.0848,-1.0835,-1.0815,-1.0794,-1.0776,-1.077,-1.0764,-1.0767,-1.076,-1.0756,-1.0754,-1.0753,-1.0756,-1.0766,-1.0766,-1.0765,-1.0765,-1.0765]},{"header":{"parameterUnit":"m.s-1","parameterCategory":1,"la1":30.2991,"la2":30.254,"lo1":-89.0895,"lo2":-89.0444,"dy":0.0017,"dx":0.0017,"nx":28,"ny":28,"refTime":"2025-09-07T21:00:00:Z","depth":0,"parameterNumber":3,"parameterNumberName":"V-component_of_WINDS"},"data":[0,0,0,0,0,0,0,0,0,0,0,0,0,0,0,0,0,0,0,0,0,0,0,0,0,0,0,0,0,0,0,0,0,0,0,0,0,0,0,0,0,0,0,0,0,0,0,0,0,0,0,0,0,0,0,0,0,0,-1.682,-1.682,0,-1.6796,-1.6796,-1.6795,-1.679,-1.679,-1.679,-1.679,-1.6762,-1.6761,-1.676,0,0,0,0,0,0,0,0,0,0,0,0,0,-1.6862,-1.6861,-1.6821,-1.682,-1.682,-1.6796,-1.6796,-1.6795,-1.679,-1.679,-1.679,-1.679,-1.6763,-1.6761,-1.676,0,0,0,0,0,0,0,0,0,0,0,0,0,-1.6841,-1.6861,-1.6821,-1.6814,-1.6813,-1.6796,-1.6796,-1.6795,-1.679,-1.679,-1.679,-1.679,-1.6763,-1.6762,-1.676,-1.6747,0,0,-1.6756,-1.6755,0,0,0,0,0,0,0,0,-1.6843,-1.684,-1.6815,-1.6815,-1.6814,-1.6796,-1.68,-1.6779,-1.6789,-1.6799,-1.679,-1.679,-1.6773,-1.6771,-1.6766,-1.6745,-1.6744,-1.6756,-1.6755,-1.6755,-1.6754,0,0,0,0,0,0,0,-1.6844,-1.6841,-1.6811,-1.6815,-1.6814,-1.6813,-1.681,-1.6796,-1.6785,-1.6798,-1.6797,-1.6795,-1.6773,-1.6767,-1.6765,-1.6744,-1.6756,-1.6755,-1.6754,-1.6753,-1.6714,-1.6714,0,0,0,0,0,0,-1.6847,-1.6842,-1.6811,-1.681,-1.6829,-1.6812,-1.6809,-1.6801,-1.6785,-1.6782,-1.6794,-1.6794,-1.6769,-1.6767,-1.6764,-1.6749,-1.6755,-1.6753,-1.6752,-1.6714,-1.6714,-1.6714,0,0,0,0,0,0,-1.6848,-1.6844,-1.6812,-1.6826,-1.6822,-1.6811,-1.6803,-1.6801,-1.6795,-1.6782,-1.678,-1.6791,-1.6769,-1.6766,-1.6752,-1.6748,-1.6753,-1.6751,-1.6714,-1.6714,-1.6714,-1.6717,0,0,0,0,0,0,-1.6849,-1.6844,-1.6839,-1.6826,-1.6821,-1.6801,-1.6802,-1.68,-1.6793,-1.6793,-1.6778,-1.6776,-1.6769,-1.6754,-1.6751,-1.6746,-1.675,-1.6715,-1.6714,-1.6714,-1.6717,-1.6717,-1.6717,0,0,0,0,0,-1.685,-1.684,-1.6839,-1.6835,-1.6814,-1.6801,-1.6798,-1.6791,-1.6793,-1.6788,-1.678,-1.6776,-1.6749,-1.6753,-1.6749,-1.6744,-1.6715,-1.6714,-1.6714,-1.6718,-1.6717,-1.6717,0,0,0,0,0,0,-1.6851,-1.6838,-1.6836,-1.6821,-1.6812,-1.68,-1.6792,-1.679,-1.678,-1.678,-1.6771,-1.6768,-1.6755,-1.6748,-1.6752,-1.6731,-1.6732,-1.6731,-1.6736,-1.6736,-1.6735,-1.6737,-1.6749,0,0,0,0,0,-1.6849,-1.684,-1.6829,-1.6816,-1.6812,-1.6803,-1.6797,-1.6793,-1.6783,-1.6779,-1.677,-1.6759,-1.6749,-1.6742,-1.6731,-1.6717,-1.6714,-1.6712,-1.6711,-1.6711,-1.671,-1.6704,-1.6704,-1.6712,-1.6712,-1.6712,0,0,-1.6845,-1.6837,-1.6831,-1.6816,-1.6809,-1.68,-1.68,-1.6789,-1.6782,-1.6777,-1.6764,-1.6757,-1.6745,-1.6732,-1.6725,-1.6725,-1.6707,-1.671,-1.671,-1.6709,-1.6704,-1.6703,-1.6702,-1.6712,-1.6712,-1.6712,0,0,-1.6834,-1.6827,-1.6817,-1.681,-1.68,-1.6795,-1.6793,-1.6781,-1.6777,-1.6764,-1.676,-1.6752,-1.6733,-1.6726,-1.6719,-1.671,-1.6707,-1.6706,-1.6704,-1.6699,-1.6698,-1.6698,-1.6695,-1.6695,-1.6705,-1.6705,-1.6705,0,-1.6831,-1.6817,-1.6812,-1.6803,-1.6797,-1.6793,-1.6784,-1.6777,-1.6763,-1.676,-1.676,-1.6739,-1.673,-1.6716,-1.6714,-1.6709,-1.6707,-1.6707,-1.6699,-1.6698,-1.6698,-1.6695,-1.6695,-1.6705,-1.6705,-1.6705,-1.6705,0,-1.6814,-1.6805,-1.6798,-1.6788,-1.6781,-1.6771,-1.6765,-1.6759,-1.6756,-1.6751,-1.6739,-1.673,-1.6718,-1.6715,-1.6711,-1.6701,-1.6702,-1.6701,-1.6701,-1.6697,-1.6695,-1.6694,-1.6705,-1.6705,-1.6705,-1.6705,0,0,-1.6801,-1.679,-1.6787,-1.6784,-1.6773,-1.6766,-1.6757,-1.6747,-1.6743,-1.6734,-1.6727,-1.6713,-1.6713,-1.6706,-1.6702,-1.6697,-1.6693,-1.6697,-1.6697,-1.6698,-1.6683,-1.6684,-1.6683,-1.6691,-1.6691,-1.6691,-1.6684,0,-1.679,-1.6775,-1.6771,-1.6758,-1.6751,-1.6749,-1.6742,-1.6735,-1.673,-1.6723,-1.6718,-1.6709,-1.6709,-1.6705,-1.67,-1.6694,-1.669,-1.6694,-1.6685,-1.6684,-1.6688,-1.6682,-1.6683,-1.6677,-1.6683,-1.6683,-1.6683,0,-1.6774,-1.6767,-1.6754,-1.6748,-1.6745,-1.6738,-1.673,-1.6723,-1.6716,-1.6714,-1.6708,-1.6705,-1.6696,-1.6698,-1.6687,-1.669,-1.6686,-1.6683,-1.6683,-1.6682,-1.6684,-1.6682,-1.6675,-1.6675,-1.6682,-1.6682,-1.6682,0,-1.6768,-1.6755,-1.6747,-1.6743,-1.6735,-1.6731,-1.6727,-1.672,-1.6715,-1.6709,-1.6706,-1.6698,-1.6693,-1.6687,-1.6682,-1.6684,-1.6672,-1.6673,-1.667,-1.667,-1.6668,-1.6668,-1.6661,-1.6664,-1.6664,-1.6664,-1.6664,0,-1.6756,-1.6748,-1.6744,-1.6739,-1.6731,-1.6727,-1.672,-1.6716,-1.671,-1.6704,-1.6702,-1.6696,-1.669,-1.6684,-1.668,-1.6673,-1.667,-1.6668,-1.6667,-1.6669,-1.6669,-1.6666,-1.6667,-1.6664,-1.6664,-1.6664,-1.6664,0,-1.6747,-1.6744,-1.6735,-1.6729,-1.6727,-1.6722,-1.6716,-1.6712,-1.6708,-1.6701,-1.6699,-1.6694,-1.6687,-1.6682,-1.6672,-1.667,-1.6662,-1.6661,-1.6665,-1.6664,-1.6663,-1.6663,-1.6654,-1.6653,-1.6656,-1.6656,-1.6656,0,-1.674,-1.6735,-1.6729,-1.6726,-1.6723,-1.6717,-1.6713,-1.671,-1.6706,-1.6699,-1.6695,-1.6689,-1.6683,-1.6672,-1.6667,-1.666,-1.6659,-1.6657,-1.6658,-1.6661,-1.6661,-1.6661,-1.6662,-1.6656,-1.6656,-1.6656,-1.6656,0,-1.6728,-1.6728,-1.6723,-1.6718,-1.6714,-1.6709,-1.6705,-1.6702,-1.6698,-1.6694,-1.6688,-1.6684,-1.6676,-1.667,-1.6663,-1.6659,-1.6658,-1.6656,-1.6656,-1.6657,-1.666,-1.666,-1.6665,-1.6656,-1.6656,-1.6656,-1.6656,-1.6656,-1.6721,-1.6717,-1.6714,-1.6709,-1.6706,-1.6702,-1.6698,-1.6695,-1.6691,-1.6685,-1.6683,-1.6677,-1.6672,-1.6663,-1.666,-1.6655,-1.6655,-1.6654,-1.6653,-1.6653,-1.6654,-1.6661,-1.6654,-1.6654,-1.6654,-1.6654,-1.6654,0,-1.671,-1.6709,-1.6704,-1.67,-1.6696,-1.6697,-1.6692,-1.6689,-1.6685,-1.6681,-1.6676,-1.667,-1.6665,-1.6661,-1.6655,-1.6653,-1.6652,-1.6651,-1.6652,-1.6651,-1.6654,-1.6655,-1.6652,-1.6652,-1.6652,-1.6652,-1.6652,-1.6652,-1.6705,-1.6699,-1.6698,-1.6692,-1.669,-1.6685,-1.6683,-1.668,-1.6677,-1.6671,-1.6668,-1.6665,-1.6662,-1.6657,-1.6652,-1.6651,-1.6649,-1.6649,-1.6648,-1.665,-1.6651,-1.6651,-1.6653,-1.6649,-1.6649,-1.6646,-1.6646,-1.6646]}]]